| time (UTC) | temp F | wind direction | speed knots | gust knots | rain 1hr in | rain 24hr in | rain mn in | humidity % | barometer mb |
| 20260904224527 | 55 | 221 | 0.0 | 0.0 | 0.00 | 0.00 | 0.08 | 92 | 996.1 |
| 20260904223029 | 55 | 227 | 0.0 | 0.0 | 0.00 | 0.00 | 0.07 | 92 | 995.8 |
| 20260904221527 | 55 | 228 | 0.0 | 0.0 | 0.00 | 0.00 | 0.05 | 92 | 995.8 |
| 20260904220026 | 55 | 227 | 0.0 | 0.0 | 0.00 | 0.00 | 0.00 | 91 | 996.0 |
| 20260904214524 | 55 | 229 | 0.0 | 0.0 | 0.00 | 0.00 | 0.28 | 91 | 996.1 |
| 20260904213026 | 54 | 231 | 0.0 | 0.0 | 0.00 | 0.00 | 0.22 | 91 | 996.1 |
| 20260904211521 | 53 | 248 | 0.0 | 0.0 | 0.00 | 0.00 | 0.17 | 90 | 996.0 |
| 20260904210021 | 53 | 248 | 0.0 | 0.0 | 0.00 | 0.00 | 0.17 | 90 | 995.7 |
| 20260904204522 | 53 | 249 | 0.0 | 0.0 | 0.00 | 0.00 | 0.17 | 89 | 995.7 |
| 20260904203021 | 53 | 249 | 0.0 | 0.0 | 0.00 | 0.00 | 0.17 | 89 | 995.7 |
| 20260904201520 | 53 | 250 | 0.0 | 0.0 | 0.00 | 0.00 | 0.17 | 88 | 995.7 |
| 20260904200019 | 54 | 249 | 0.0 | 0.0 | 0.00 | 0.00 | 0.17 | 88 | 995.9 |
| 20260904194517 | 54 | 249 | 0.0 | 0.0 | 0.00 | 0.00 | 0.17 | 87 | 995.9 |
| 20260904193017 | 55 | 249 | 0.0 | 0.0 | 0.00 | 0.00 | 0.17 | 87 | 995.9 |
| 20260904191515 | 55 | 249 | 0.0 | 0.0 | 0.00 | 0.00 | 0.17 | 86 | 996.1 |
| 20260904190012 | 56 | 248 | 0.0 | 0.0 | 0.00 | 0.00 | 0.17 | 85 | 996.1 |
| 20260904184511 | 56 | 248 | 0.0 | 0.0 | 0.00 | 0.00 | 0.17 | 84 | 996.0 |
| 20260904183021 | 57 | 360 | 0.0 | 0.0 | 0.00 | 0.00 | 0.17 | 84 | 996.1 |
| 20260904181523 | 57 | 227 | 0.0 | 0.0 | 0.00 | 0.00 | 0.17 | 83 | 996.1 |
| 20260904180010 | 57 | 205 | 0.0 | 0.0 | 0.00 | 0.00 | 0.17 | 82 | 996.1 |
| 20260904174510 | 58 | 231 | 0.0 | 0.0 | 0.00 | 0.00 | 0.17 | 81 | 996.1 |
| 20260904173023 | 58 | 225 | 0.0 | 0.0 | 0.00 | 0.00 | 0.17 | 79 | 996.0 |
| 20260904171512 | 59 | 244 | 0.0 | 0.0 | 0.00 | 0.00 | 0.17 | 78 | 995.8 |
| 20260904170010 | 59 | 360 | 0.0 | 0.0 | 0.00 | 0.00 | 0.17 | 76 | 995.7 |
| 20260904164508 | 60 | 265 | 0.0 | 0.0 | 0.00 | 0.00 | 0.17 | 75 | 995.7 |
| 20260904163012 | 61 | 138 | 0.0 | 0.0 | 0.00 | 0.00 | 0.17 | 73 | 995.9 |
| 20260904161512 | 63 | 302 | 0.0 | 0.0 | 0.00 | 0.00 | 0.17 | 69 | 995.9 |
| 20260904160011 | 63 | 253 | 0.0 | 0.0 | 0.00 | 0.00 | 0.17 | 72 | 995.9 |
| 20260904154510 | 63 | 325 | 0.0 | 0.0 | 0.00 | 0.00 | 0.17 | 73 | 995.9 |
| 20260904153011 | 63 | 187 | 0.0 | 0.0 | 0.00 | 0.00 | 0.17 | 71 | 996.0 |
| 20260904151507 | 63 | 298 | 0.0 | 0.0 | 0.00 | 0.00 | 0.17 | 70 | 996.0 |
| 20260904150006 | 63 | 310 | 0.0 | 0.0 | 0.00 | 0.00 | 0.17 | 71 | 996.0 |
| 20260904144505 | 64 | 237 | 0.0 | 0.0 | 0.00 | 0.00 | 0.17 | 68 | 996.0 |
| 20260904143008 | 64 | 204 | 0.0 | 0.0 | 0.00 | 0.00 | 0.17 | 69 | 996.0 |
| 20260904141506 | 63 | 287 | 0.0 | 0.0 | 0.00 | 0.00 | 0.17 | 70 | 996.2 |
| 20260904140005 | 63 | 281 | 0.0 | 0.0 | 0.00 | 0.00 | 0.17 | 73 | 996.3 |
| 20260904134505 | 62 | 360 | 0.0 | 0.0 | 0.00 | 0.00 | 0.17 | 73 | 996.3 |
| 20260904133003 | 62 | 360 | 0.0 | 0.0 | 0.00 | 0.00 | 0.17 | 75 | 996.5 |
| 20260904131502 | 62 | 219 | 0.0 | 0.0 | 0.00 | 0.00 | 0.17 | 75 | 996.6 |
| 20260904130003 | 63 | 360 | 0.0 | 0.0 | 0.00 | 0.00 | 0.17 | 75 | 996.8 |
| 20260904124501 | 63 | 228 | 0.0 | 0.0 | 0.00 | 0.00 | 0.17 | 74 | 996.7 |
| 20260904123002 | 64 | 169 | 0.0 | 0.0 | 0.00 | 0.00 | 0.17 | 74 | 996.8 |
| 20260904121501 | 64 | 261 | 0.0 | 0.0 | 0.00 | 0.00 | 0.17 | 74 | 996.8 |
| 20260904120106 | 63 | 244 | 0.0 | 0.0 | 0.00 | 0.00 | 0.17 | 74 | 997.2 |
| 20260904114558 | 63 | 248 | 0.0 | 0.0 | 0.00 | 0.00 | 0.17 | 73 | 997.3 |
| 20260904113058 | 62 | 360 | 0.0 | 0.0 | 0.00 | 0.00 | 0.17 | 74 | 997.3 |
| 20260904111558 | 62 | 267 | 0.0 | 0.0 | 0.00 | 0.00 | 0.17 | 73 | 997.3 |
| 20260904110057 | 63 | 253 | 0.0 | 0.0 | 0.00 | 0.00 | 0.17 | 74 | 997.2 |
| 20260904104553 | 62 | 360 | 0.0 | 0.0 | 0.00 | 0.00 | 0.17 | 78 | 997.4 |
| 20260904103051 | 61 | 224 | 0.0 | 0.0 | 0.00 | 0.00 | 0.17 | 80 | 997.5 |
| 20260904101551 | 60 | 244 | 0.0 | 0.0 | 0.00 | 0.00 | 0.17 | 79 | 997.6 |
| 20260904100053 | 60 | 210 | 0.0 | 0.0 | 0.00 | 0.00 | 0.17 | 79 | 997.7 |
| 20260904094548 | 60 | 298 | 0.0 | 0.0 | 0.00 | 0.00 | 0.17 | 81 | 997.9 |
| 20260904093053 | 60 | 213 | 0.0 | 0.0 | 0.00 | 0.00 | 0.17 | 80 | 997.9 |
| 20260904091553 | 60 | 246 | 0.0 | 0.0 | 0.00 | 0.00 | 0.17 | 82 | 998.0 |
| 20260904090045 | 60 | 253 | 0.0 | 0.0 | 0.00 | 0.00 | 0.17 | 83 | 998.0 |
| 20260904084545 | 60 | 230 | 0.0 | 0.0 | 0.00 | 0.00 | 0.17 | 84 | 998.1 |
| 20260904083045 | 60 | 360 | 0.0 | 0.0 | 0.00 | 0.00 | 0.17 | 86 | 998.1 |
| 20260904081543 | 59 | 205 | 0.0 | 0.0 | 0.00 | 0.00 | 0.17 | 87 | 998.0 |
| 20260904080042 | 59 | 271 | 0.0 | 0.0 | 0.00 | 0.00 | 0.17 | 88 | 998.0 |
| 20260904074558 | 58 | 265 | 0.0 | 0.0 | 0.00 | 0.00 | 0.17 | 89 | 998.1 |
| 20260904073040 | 58 | 233 | 0.0 | 0.0 | 0.00 | 0.00 | 0.17 | 89 | 998.1 |
| 20260904071558 | 57 | 228 | 0.0 | 0.0 | 0.00 | 0.00 | 0.17 | 91 | 998.2 |
| 20260904070038 | 57 | 236 | 0.0 | 0.0 | 0.00 | 0.00 | 0.17 | 91 | 998.2 |
| 20260904064541 | 57 | 192 | 0.0 | 0.0 | 0.00 | 0.00 | 0.17 | 91 | 998.4 |
| 20260904063046 | 57 | 221 | 0.0 | 0.0 | 0.00 | 0.00 | 0.17 | 92 | 998.6 |
| 20260904061534 | 56 | 209 | 0.0 | 0.0 | 0.00 | 0.00 | 0.17 | 92 | 998.7 |
| 20260904060034 | 56 | 256 | 0.0 | 0.0 | 0.00 | 0.00 | 0.17 | 92 | 998.8 |
| 20260904054536 | 56 | 360 | 0.0 | 0.0 | 0.00 | 0.00 | 0.17 | 92 | 998.8 |
| 20260904053037 | 56 | 173 | 0.0 | 0.0 | 0.00 | 0.00 | 0.17 | 92 | 998.8 |
| 20260904051534 | 56 | 232 | 0.0 | 0.0 | 0.00 | 0.00 | 0.17 | 92 | 998.9 |
| 20260904050034 | 56 | 239 | 0.0 | 0.0 | 0.00 | 0.00 | 0.17 | 92 | 999.0 |
| 20260904044532 | 56 | 205 | 0.0 | 0.0 | 0.00 | 0.00 | 0.17 | 93 | 998.8 |
| 20260904043033 | 57 | 270 | 0.0 | 0.0 | 0.00 | 0.00 | 0.17 | 93 | 998.8 |
| 20260904041533 | 57 | 227 | 0.0 | 0.0 | 0.00 | 0.00 | 0.17 | 93 | 998.8 |
| 20260904040031 | 57 | 233 | 0.0 | 0.0 | 0.00 | 0.00 | 0.17 | 93 | 998.8 |
| 20260904034533 | 57 | 246 | 0.0 | 0.0 | 0.00 | 0.00 | 0.17 | 93 | 998.8 |
| 20260904033029 | 57 | 233 | 0.0 | 0.0 | 0.00 | 0.00 | 0.17 | 93 | 998.7 |
| 20260904031528 | 57 | 207 | 0.0 | 0.0 | 0.00 | 0.00 | 0.17 | 93 | 998.8 |
| 20260904030035 | 58 | 360 | 0.0 | 0.0 | 0.00 | 0.00 | 0.17 | 93 | 998.9 |
| 20260904024526 | 58 | 272 | 0.0 | 0.0 | 0.00 | 0.00 | 0.17 | 93 | 999.0 |
| 20260904023028 | 58 | 360 | 0.0 | 0.0 | 0.00 | 0.00 | 0.16 | 93 | 999.1 |
| 20260904021534 | 58 | 234 | 0.0 | 0.0 | 0.00 | 0.00 | 0.16 | 93 | 999.3 |
| 20260904020027 | 58 | 226 | 0.0 | 0.0 | 0.00 | 0.00 | 0.16 | 93 | 999.3 |
| 20260904014525 | 58 | 279 | 0.0 | 0.0 | 0.00 | 0.00 | 0.16 | 93 | 999.3 |
| 20260904013022 | 58 | 203 | 0.0 | 0.0 | 0.00 | 0.00 | 0.15 | 93 | 999.6 |
| 20260904011522 | 58 | 213 | 0.0 | 0.0 | 0.00 | 0.00 | 0.15 | 93 | 999.7 |
| 20260904010022 | 58 | 209 | 0.0 | 0.0 | 0.00 | 0.00 | 0.15 | 93 | 999.6 |
| 20260904004519 | 58 | 186 | 0.0 | 0.0 | 0.00 | 0.00 | 0.15 | 93 | 999.9 |
| 20260904003023 | 58 | 250 | 0.0 | 0.0 | 0.00 | 0.00 | 0.15 | 92 | 1000.5 |
| 20260904001517 | 58 | 138 | 0.0 | 0.0 | 0.00 | 0.00 | 0.14 | 92 | 1000.7 |
| 20260904000017 | 58 | 105 | 0.0 | 0.0 | 0.00 | 0.00 | 0.13 | 92 | 1000.7 |
| 20260903234514 | 58 | 128 | 0.0 | 0.0 | 0.00 | 0.00 | 0.12 | 92 | 1000.9 |
| 20260903233014 | 58 | 155 | 0.0 | 0.0 | 0.00 | 0.00 | 0.08 | 92 | 1001.0 |
| 20260903231510 | 58 | 111 | 0.0 | 0.0 | 0.00 | 0.00 | 0.03 | 91 | 1001.1 |
| 20260903230013 | 58 | 133 | 0.0 | 0.0 | 0.00 | 0.00 | 0.02 | 91 | 1001.1 |